Regional Weather Roundup
Issued by NWS Sioux Falls, SD

Home | Current Version | Previous Version | Graphics & Text | Print | Product List | Glossary Off
Versions: 1 2 3 4 5 6 7 8 9 10 11 12 13 14 15 16 17 18 19 20 21 22 23 24 25 26 27 28 29 30 31 32 33 34 35 36 37 38 39 40 41 42 43 44 45 46 47 48 49 50

000
ASUS43 KFSD 231802
RWRFSD

WEATHER ROUNDUP FOR SE SOUTH DAKOTA/SW MINNESOTA/NW IOWA
NATIONAL WEATHER SERVICE SIOUX FALLS SD
100 PM CDT WED APR 23 2014

NOTE: "FAIR" INDICATES FEW OR NO CLOUDS BELOW 12,000 FEET WITH NO
SIGNIFICANT WEATHER AND OR OBSTRUCTIONS TO VISIBILITY.


SDZ038>040-050-052>070-231900-
SOUTHEAST SOUTH DAKOTA

CITY           SKY/WX    TMP DP  RH WIND       PRES   REMARKS
CHAMBERLAIN      N/A     71  42  35 S21G36    29.53F
6HR MIN TEMP:  52; 6HR MAX TEMP:  71;

HURON          PTSUNNY   62  37  39 SE26G39   29.62F
6HR MIN TEMP:  52; 6HR MAX TEMP:  63; 6HR PCP: TRACE;

MADISON        FAIR      57  37  47 SE30G49   29.71F
MITCHELL       PTSUNNY   66  41  40 SE29G43   29.62F
6HR MIN TEMP:  51; 6HR MAX TEMP:  66;

SIOUX FALLS    NOT AVBL
WINNER         FAIR      72  42  34 S17       29.51S
YANKTON        FAIR      64  39  39 SE28G44   29.67S
$$

MNZ071-072-080-081-089-090-097-098-231900-
SOUTHWEST MINNESOTA

CITY           SKY/WX    TMP DP  RH WIND       PRES   REMARKS
FAIRMONT       CLOUDY    46  34  61 SE21G30   29.96S
JACKSON        CLOUDY    50  32  50 SE20      29.90F
LUVERNE        CLOUDY    52  36  54 SE25G37   29.79S
MARSHALL       CLOUDY    45  34  65 SE24G31   29.84F
6HR MIN TEMP:  43; 6HR MAX TEMP:  48; 6HR PCP:  0.03;

MONTEVIDEO     CLOUDY    43  39  87 S21G26    29.91F
PIPESTONE      CLOUDY    48  36  61 SE20G28   29.79F
REDWOOD FALLS  CLOUDY    44  36  73 SE17G28   29.93F
TRACY          CLOUDY    45  37  71 E20G25    29.87F
WINDOM         CLOUDY    46  36  66 E18       29.89F
WORTHINGTON    CLOUDY    48  30  49 SE25G33   29.85F
$$

IAZ001>003-012>014-020>022-031-032-NEZ013-014-SDZ071-231900-
NORTHWEST IOWA

CITY           SKY/WX    TMP DP  RH WIND       PRES   REMARKS
ESTHERVILLE    LGT RAIN  47  36  65 SE29G37   29.90F
SIOUX CITY     FAIR      60  43  53 SE32G41   29.75F
6HR MIN TEMP:  49; 6HR MAX TEMP:  60; 6HR PCP:  0.01;

SPENCER        CLOUDY    50  35  56 SE30G40   29.84F
6HR MIN TEMP:  47; 6HR MAX TEMP:  51; 6HR PCP: TRACE;

$$

ABBREVIATIONS USED IN REMARKS
   TC - TEMPERATURE IN CELSIUS
  WCI - WIND CHILL INDEX
   HX - HEAT INDEX
  VSB - VISIBILITY




USA.gov is the U.S. government's official web portal to all federal, state and local government web resources and services.